TimeEDT,TemperatureF,Dew PointF,Humidity,Sea Level PressureIn,VisibilityMPH,Wind Direction,Wind SpeedMPH,Gust SpeedMPH,PrecipitationIn,Events,Conditions,WindDirDegrees,DateUTC
12:53 AM,41.0,35.1,79,30.35,10.0,NE,5.8,-,N/A,,Clear,40,2013-05-25 04:53:00
1:53 AM,41.0,36.0,82,30.35,10.0,NE,3.5,-,N/A,,Clear,50,2013-05-25 05:53:00
2:53 AM,41.0,35.1,79,30.35,10.0,Calm,Calm,-,N/A,,Clear,0,2013-05-25 06:53:00
3:53 AM,39.0,34.0,82,30.36,10.0,Calm,Calm,-,N/A,,Clear,0,2013-05-25 07:53:00
4:53 AM,39.0,33.1,79,30.35,10.0,Calm,Calm,-,N/A,,Clear,0,2013-05-25 08:53:00
5:53 AM,37.9,33.1,83,30.35,5.0,Calm,Calm,-,N/A,,Haze,0,2013-05-25 09:53:00
6:53 AM,37.9,34.0,86,30.35,9.0,Calm,Calm,-,N/A,,Clear,0,2013-05-25 10:53:00
7:53 AM,46.0,39.0,76,30.37,10.0,Calm,Calm,-,N/A,,Clear,0,2013-05-25 11:53:00
8:53 AM,50.0,36.0,59,30.40,10.0,Calm,Calm,-,N/A,,Overcast,0,2013-05-25 12:53:00
9:53 AM,55.0,33.1,43,30.41,10.0,Variable,3.5,-,N/A,,Clear,0,2013-05-25 13:53:00
10:53 AM,57.9,32.0,37,30.39,10.0,Variable,5.8,-,N/A,,Clear,0,2013-05-25 14:53:00
11:53 AM,62.1,33.1,34,30.38,10.0,North,9.2,-,N/A,,Clear,360,2013-05-25 15:53:00
12:53 PM,64.0,34.0,33,30.38,10.0,Variable,5.8,-,N/A,,Clear,0,2013-05-25 16:53:00
1:53 PM,64.9,34.0,32,30.36,10.0,Variable,4.6,-,N/A,,Clear,0,2013-05-25 17:53:00
2:53 PM,66.0,34.0,30,30.34,10.0,WSW,4.6,-,N/A,,Clear,250,2013-05-25 18:53:00
3:53 PM,68.0,37.0,32,30.32,10.0,North,6.9,-,N/A,,Clear,360,2013-05-25 19:53:00
4:53 PM,66.9,34.0,30,30.31,10.0,North,10.4,-,N/A,,Clear,350,2013-05-25 20:53:00
5:53 PM,66.9,34.0,30,30.29,10.0,North,6.9,-,N/A,,Clear,350,2013-05-25 21:53:00
6:53 PM,66.9,36.0,32,30.29,10.0,NW,6.9,-,N/A,,Clear,320,2013-05-25 22:53:00
7:53 PM,64.0,36.0,35,30.29,10.0,NNE,9.2,-,N/A,,Partly Cloudy,30,2013-05-25 23:53:00
8:53 PM,57.9,37.0,46,30.29,10.0,ENE,8.1,-,N/A,,Clear,70,2013-05-26 00:53:00
9:53 PM,53.1,37.9,57,30.30,10.0,ESE,5.8,-,N/A,,Clear,110,2013-05-26 01:53:00
10:53 PM,53.1,37.9,57,30.31,10.0,Calm,Calm,-,N/A,,Clear,0,2013-05-26 02:53:00
11:53 PM,48.9,37.9,66,30.33,10.0,NE,3.5,-,N/A,,Clear,40,2013-05-26 03:53:00